Вернуться в каталог

STARLINK-34399

АктивенСвязьVLEO
NORAD 64444·PAYLOAD·🇺🇸 United States

Запущен Jun 18, 2025 с Cape Canaveral Space Force Station

Loading…

Ближайшие Пролёты (ближайшие 24 часа)

TLE

СвежийSource: CelesTrak SupGP

Эпоха: Sep 15, 2026, 03:54 UTC

1 64444C 25130G   26258.16298611 -.00015789  00000+0 -46639-3 0  2580
2 64444  53.1582 284.3772 0001319  87.5200 132.1419 15.34404357    15

Отслеживайте STARLINK-34399 в реальном времени с AllMySat

Download on the App Store